Weather in Olkhovets

Russia / Lipetsk Oblast     53°04′59″N   39°10′40″E
temp.,
°C
wind,
m/s
gust,
m/s
humid.,
%
clouds,
%
prec.,
mm/h
press.,
hPa
HPBL,
m
17 april, sat
sat1700:00+10sw22675 0.0 101814
03:00+9ne22695 0.0 101824
06:00+9ne357188 0.0 101790
09:00+12ese5875100 0.6 1017683
12:00+12sse2466100 0.8 1017618
15:00+9s5988100 4.1 1018482
18:00+8w3688100 4.6 1017424
21:00+8w1189100 5.9 101899
18 april, sun
sun1800:00+7ese1191100 0.0 101910
03:00+6sw11934 0.0 101911
06:00+5ssw22915 0.0 101923
09:00+8s117798 0.1 1019471
12:00+9w2267100 0.4 1020782
15:00+11ssw2253100 0.4 10201354
18:00+11sse225737 0.0 1020600
21:00+9sse226395 0.1 102123
19 april, mon
mon1900:00+9sse226581 0.0 102116
03:00+7e116882 0.0 102010
06:00+6ene22715 0.0 102020
09:00+10ene3565100 0.0 1020534
12:00+11ene567199 0.4 1019849
15:00+10ne5785100 2.6 1019527
18:00+8ene81389100 0.8 1019797
21:00+6e71389100 1.9 1020689
20 april, tue
tue2000:00+5e61288100 1.0 1019579
03:00+5ene61394100 4.6 1017607
06:00+6e81593100 3.3 1015631
09:00+6e91692100 6.2 1014803
12:00+6e91792100 1.5 1013775
15:00+7e112093100 7.4 1008997
18:00+7ese132591100 6.9 10051315
21:00+9se122389100 8.1 10031232
21 april, wed
wed2100:00+11se11208518 0.4 10011296
03:00+9sse101879100 0.8 10011263
06:00+8sse122088100 0.4 10001525
09:00+6s111888100 1.6 10041295
12:00+7ssw101680100 0.1 10081355
15:00+7ssw91580100 0.3 10121435
18:00+8ssw71279100 0.0 1015977
21:00+7ssw61282100 0.1 1017497